Location: Knowlton
(51.2333°N, 1.2667°E)
Time: 04:02:01
(UTC+00:00)

Meteor 1-4 Rocket - Pass Details

Date: 18 April 2021
Orbit: 448 x 499 km, 81.2° (Epoch: 06 May)

Event Time Altitude Azimuth Distance (km) Brightness Sun altitude
Exits shadow 21:10:16 24° 68° (ENE) 981 3.9 -18.3°
Drops below altitude 10° 21:12:28 10° 34° (NE) 1,615 5.4 -18.5°
Sets 21:14:46 0° 22° (NNE) 2,504 6.5 -18.7°
